Station BLIA2 - Bligh Reef Light, AK Image indicating link to RSS feed of recent meteorological observations for station BLIA2


Conditions at BLIA2 as of
(9:00 am AKDT)
1700 GMT on 05/25/2024:
     

Click on the graph icon in the table below to see a time series plot of the last five days of that observation.

5-day plot - Wind Direction Wind Direction (WDIR): N ( 10 deg true )
5-day plot - Wind Speed Wind Speed (WSPD): 5 kts
5-day plot - Wind Gust Wind Gust (GST): 6 kts
5-day plot - Atmospheric Pressure Atmospheric Pressure (PRES):29.61 in
5-day plot - Pressure Tendency Pressure Tendency (PTDY):-0.01 in ( Falling )
5-day plot - Air Temperature Air Temperature (ATMP): 52.9 °F
5-day plot - Wind Chill Wind Chill (CHILL): 51.3 °F
5-day plot - Wind Speed at 10 Meters Wind Speed at 10 meters (WSPD10M): 6 kts
5-day plot - Wind Speed at 20 Meters Wind Speed at 20 meters (WSPD20M): 6 kts
5-day plot -  Wind Speed, Wind Gust and Atmospheric Pressure Combined plot of Wind Speed, Gust, and Air Pressure
Continuous Winds
TIME
(AKDT)
5-day plot - Wind Direction WDIR 5-day plot - Wind Speed WSPD
9:00 amNNE ( 15 deg ) 6 kts
8:50 amNNE ( 16 deg ) 7 kts
8:40 amN ( 11 deg ) 8 kts
8:30 amNNE ( 20 deg ) 9 kts
8:20 amN ( 11 deg ) 8 kts
8:10 amNNE ( 16 deg ) 9 kts
 
Peak gust during the measurement hour
TIME
(AKDT)
5-day plot - Gust Direction GDR 5-day plot - Gust Speed GST
8:02 amN ( 10 deg ) 10 kts
Previous observations
TIME
(AKDT)
5-day plot - Wind Direction
WDIR
 
5-day plot - Wind Speed
WSPD
kts
5-day plot - Wind Gust
GST
kts
5-day plot - Wave Height
WVHT
ft
5-day plot - Dominant Wave Period
DPD
sec
5-day plot - Average Wave Period
APD
sec
5-day plot - Mean Wave Direction
MWD
 
5-day plot - Atmospheric Pressure
PRES
in
5-day plot - Pressure Tendency
PTDY
in
5-day plot - Air Temperature
ATMP
°F
5-day plot - Water Temperature
WTMP
°F
5-day plot - Dew Point
DEWP
°F
5-day plot - Salinity
SAL
psu
5-day plot - Visibility
VIS
nmi
5-day plot - Tide (above MLLW)
TIDE
ft
2024-05-25 08:30 am N 8 8----29.62- 52.3-----
2024-05-25 08:00 amNNE 9 9----29.62-0.01 52.0-----
2024-05-25 07:30 am N 10 10----29.61- 52.0-----
2024-05-25 07:00 amNNE 9 10----29.62-0.02 52.0-----
2024-05-25 06:30 am N 10 10----29.62- 52.0-----
2024-05-25 06:00 am N 7 9----29.62-0.03 52.2-----
2024-05-25 05:30 amNNE 8 9----29.62- 52.0-----
2024-05-25 05:00 amNNE 8 8----29.62-0.04 51.8-----
2024-05-25 04:30 am N 7 9----29.63- 51.8-----
2024-05-25 04:00 amNNE 5 6----29.64-0.04 51.6-----
2024-05-25 03:30 amNNE 6 6----29.65- 51.8-----
2024-05-25 03:00 amNNE 5 5----29.65-0.04 51.6-----
2024-05-25 02:30 amNNE 5 6----29.66- 52.0-----
2024-05-25 02:00 amNNE 4 4----29.66-0.04 52.2-----
2024-05-25 01:30 am NE 5 6----29.67- 52.2-----
2024-05-25 01:00 am N 4 4----29.67-0.03 52.2-----
2024-05-25 12:30 amENE 3 3----29.68- 52.0-----
2024-05-25 12:00 am NE 3 3----29.69-0.03 52.2-----
2024-05-24 11:30 pm N 4 5----29.69- 52.2-----
2024-05-24 11:00 pmNNW 7 8----29.70-0.03 52.0-----
2024-05-24 10:30 pmNNW 4 5----29.70- 51.8-----
2024-05-24 10:00 pm N 6 7----29.71-0.03 51.6-----
2024-05-24 09:30 pmNNW 7 8----29.71- 51.3-----
2024-05-24 09:00 pm N 7 7----29.72-0.02 51.4-----
2024-05-24 08:30 pm N 5 5----29.72- 51.4-----
2024-05-24 08:00 pm N 6 6----29.72-0.03 51.6-----
2024-05-24 07:30 pm E 4 5----29.73- 51.6-----
2024-05-24 07:00 pmESE 7 8----29.73-0.03 51.4-----
2024-05-24 06:30 pm SE 12 13----29.73- 51.6-----
2024-05-24 06:00 pmSSE 13 14----29.74-0.02 52.2-----
2024-05-24 05:30 pmSSE 9 10----29.75- 51.6-----
2024-05-24 05:00 pmSSE 10 11----29.75-0.02 51.8-----
2024-05-24 04:30 pmSSE 9 10----29.75- 52.0-----
2024-05-24 04:00 pmSSE 7 8----29.76+0.00 52.2-----
2024-05-24 03:30 pmSSE 7 8----29.76- 52.3-----
2024-05-24 03:00 pm S 9 9----29.76+0.00 52.9-----
2024-05-24 02:30 pm S 11 11----29.77- 52.7-----
2024-05-24 02:00 pmSSE 12 13----29.77+0.00 53.1-----
2024-05-24 01:30 pm S 17 19----29.76- 53.2-----
2024-05-24 01:00 pmSSE 16 17----29.77-0.01 54.7-----
2024-05-24 12:30 pmSSE 18 19----29.76- 55.0-----
2024-05-24 12:00 pmSSE 19 21----29.77-0.03 55.0-----
2024-05-24 11:30 amSSE 18 19----29.77- 55.2-----
2024-05-24 11:00 amSSE 15 17----29.78-0.03 55.6-----
2024-05-24 10:30 amSSE 9 11----29.78- 56.1-----
2024-05-24 10:00 amSSE 13 13----29.78-0.02 55.4-----
2024-05-24 09:30 amSSE 9 10----29.79- 55.9-----
2024-05-24 09:00 amSSE 12 13----29.79-0.02 55.6-----